Location: DARK SKY Beskydy - Park tmavé oblohy, www.darkskybeskydy.cz
(49.4926°N, 18.5016°E)
Time: 08:59:08
(UTC+02:00)

Envisat - Pass Details

Date: 25 June 2024
Orbit: 762 x 764 km, 98.3° (Epoch: 13 July)

Event Time Altitude Azimuth Distance (km) Brightness Sun altitude
Rises 02:45:58 0° 28° (NNE) 3,237 8.4 -12.6°
Reaches altitude 10° 02:49:07 10° 48° (NE) 2,304 6.7 -12.4°
Maximum altitude 02:52:21 17° 88° (E) 1,867 5.4 -12.1°
Drops below altitude 10° 02:55:35 10° 128° (SE) 2,293 5.4 -11.9°
Sets 02:58:42 0° 149° (SSE) 3,213 5.9 -11.6°
